Home > Weather > Barnaul > Past weeks

Flag for Russia Weather for the Past 2 Weeks in Barnaul, Russia

Now
25 °F

Light snow. Partly cloudy.


Feels Like: 13 °F
Forecast: 10 / 28 °F
Wind: 13 mph from West

Location: Barnaul Airport

Current Time: Feb 8, 2016 at 11:54:27 PM

Latest Report: Feb 8, 2016 at 11:30 PM


Visibility: 4 mi

Pressure: 29.71 "Hg

Humidity: 93%

Dew point: 23 °F

Location of BarnaulLocation

Historic Weather in Barnaul — Graph

°F

Barnaul Temperature Yesterday

Maximum temperature yesterday: 32 °F (at 1:00 PM)
Minimum temperature yesterday: 27 °F (at 5:30 AM)
Average temperature yesterday: 30 °F

High & Low Weather Summary for the Past Weeks

 TemperatureHumidityPressure
High32 °F (Feb 6, 1:00 AM)93% (Feb 5, 8:30 AM)30.77 "Hg (Feb 5, 8:30 AM)
Low-8 °F (Jan 28, 8:00 AM)42% (Jan 26, 4:00 PM)29.59 "Hg (Feb 8, 6:00 AM)
Average14 °F70%30.34 "Hg
* Reported Jan 24 10:00 PM — Feb 8 10:30 PM, Barnaul, Weather by CustomWeather, © 2016

Note: Actual official high and low records may vary slightly from our data, if they occured in-between our weather recording intervals... More about our weather records

Advertising

Barnaul Weather History for the Previous 24 Hours

 ConditionsComfort  
Time TempWeatherWind HumidityBarometerVisibility
10:30 PM
Mon, Feb 8
27 °FPassing clouds.15 mph80%29.71 "HgN/A
10:00 PM27 °FPassing clouds.15 mph80%29.71 "HgN/A
9:30 PM28 °FPassing clouds.15 mph80%29.68 "HgN/A
9:00 PM28 °FLight snow. Passing clouds.20 mph86%29.68 "HgN/A
8:30 PM28 °FLight snow. Passing clouds.24 mph80%29.68 "HgN/A
8:00 PM30 °FPassing clouds.17 mph80%29.68 "HgN/A
7:30 PM30 °FPassing clouds.17 mph86%29.68 "HgN/A
7:00 PM30 °FPassing clouds.13 mph86%29.65 "HgN/A
6:30 PM30 °FPassing clouds.13 mph80%29.65 "HgN/A
6:00 PM30 °FPassing clouds.13 mph80%29.65 "HgN/A
5:30 PM30 °FPassing clouds.13 mph80%29.65 "HgN/A
5:00 PM30 °FLight snow. Partly sunny.15 mph80%29.65 "HgN/A
4:30 PM30 °FLight snow. Partly sunny.15 mph86%29.65 "HgN/A
4:00 PM32 °FPartly sunny.15 mph75%29.65 "HgN/A
3:30 PM32 °FPartly sunny.17 mph75%29.65 "HgN/A
3:00 PM32 °FPartly sunny.20 mph75%29.62 "HgN/A
2:30 PM32 °FLight snow. Partly sunny.17 mph69%29.62 "HgN/A
2:00 PM32 °FLight snow. Partly sunny.17 mph69%29.62 "HgN/A
1:30 PM32 °FPartly sunny.20 mph69%29.62 "HgN/A
1:00 PM32 °FSunny.17 mph69%29.62 "Hg10 mi
12:30 PM32 °FSunny.17 mph69%29.62 "Hg10 mi
12:00 PM32 °FSunny.17 mph69%29.62 "Hg10 mi
11:30 AM32 °FSunny.15 mph64%29.62 "Hg10 mi
11:00 AM32 °FSunny.17 mph64%29.62 "Hg10 mi
10:30 AM32 °FScattered clouds.17 mph64%29.62 "HgN/A
10:00 AM32 °FScattered clouds.15 mph64%29.62 "HgN/A
9:30 AM32 °FScattered clouds.13 mph64%29.59 "HgN/A
9:00 AM32 °FScattered clouds.15 mph64%29.59 "HgN/A
8:30 AM32 °FScattered clouds.15 mph64%29.59 "HgN/A
8:00 AM32 °FScattered clouds.13 mph64%29.59 "HgN/A
7:00 AM32 °FPassing clouds.13 mph60%29.59 "HgN/A
6:30 AM32 °FPassing clouds.10 mph60%29.59 "HgN/A
6:00 AM32 °FPassing clouds.10 mph60%29.59 "HgN/A
5:30 AM32 °FPassing clouds.13 mph64%29.62 "HgN/A
5:00 AM32 °FPassing clouds.13 mph64%29.62 "HgN/A
4:30 AM30 °FPassing clouds.10 mph75%29.62 "HgN/A
4:00 AM32 °FPassing clouds.10 mph69%29.65 "HgN/A
3:30 AM30 °FPassing clouds.8 mph75%29.65 "HgN/A
3:00 AM30 °FPassing clouds.8 mph75%29.68 "HgN/A
2:30 AM32 °FPassing clouds.8 mph69%29.68 "HgN/A
2:00 AM32 °FPassing clouds.10 mph69%29.71 "HgN/A
1:30 AM32 °FPassing clouds.8 mph69%29.71 "HgN/A
1:00 AM32 °FPassing clouds.8 mph69%29.74 "HgN/A
12:30 AM30 °FPassing clouds.8 mph75%29.74 "HgN/A
12:00 AM32 °FPassing clouds.8 mph69%29.77 "HgN/A
11:30 PM
Sun, Feb 7
30 °FPassing clouds.8 mph75%29.77 "HgN/A
11:00 PM32 °FPassing clouds.10 mph69%29.80 "HgN/A
Weather by CustomWeather, © 2016

See weather overviewHow to use our weather pages